TIME,DELAY(SENSOR),PRES,OXYGEN,RAWTEMP,T(OPTODE),TCPHASE,FLUOR,BETA(BETA700),BETA(BETA412),BETA(BETA440),CDOM,C(CSC),ED(ED411.90),ED(ED443.80),ED(ED489.40),ED(ED554.70),LU(LU412.20),LU(LU443.80),LU(LU489.40),LU(LU555.00),COMP,TILTX,TILTY,CHECK
1368397901,5803,893.5300292968750000,157.8936004638672000,458.7780151367187500,8.8029918670654300,40.1009292602539060,53,134,104,85,80,10730,2146961325,2147517147,2147287561,2147502784,2147081398,2146928347,2147706688,2147119424,3171,-1,8,56382
1368401497,5804,1011.1099853515625000,213.9732971191406200,527.1450195312500000,6.6848092079162600,37.5446205139160160,53,104,98,79,81,10767,2146963995,2147516132,2147295021,2147516864,2147084745,2146922688,2147724306,2147116187,1249,-1,8,13882
1368405097,5806,1031.0500488281250000,210.1605987548828000,534.1121215820312000,6.4671568870544430,37.8913383483886700,51,105,97,79,81,10766,2146962678,2147518747,2147295186,2147515520,2147086866,2146921828,2147727798,2147120841,3362,-1,8,49454
1368408697,5804,1031.4499511718750000,216.8692016601562500,536.1865234375000000,6.4022808074951170,37.5403709411621100,52,105,98,79,80,10756,2146963364,2147518610,2147297014,2147517714,2147087908,2146923355,2147727515,2147116635,2891,-1,8,1921
1368412297,5805,1032.2099609375000000,216.2111053466797000,540.1356811523438000,6.2786870002746580,37.6491012573242200,52,139,97,78,80,10749,2146967771,2147515108,2147294107,2147518674,2147086893,2146920173,2147726610,2147120265,3350,-1,8,5591
1368415897,5808,1031.3699951171875000,219.0162963867187500,539.1068115234375000,6.3109002113342285,37.4719696044921900,56,106,100,80,81,10747,2146964891,2147518674,2147296064,2147518116,2147086107,2146922925,2147723666,2147118683,466,0,8,7208
1368419497,5806,1032.1099853515625000,218.1853942871093800,536.9868774414062000,6.3772430419921875,37.4797210693359400,52,102,100,79,81,10748,2146964059,2147518400,2147296182,2147518034,2147087451,2146921764,2147725485,2147118976,434,0,8,28783
1368423097,5807,1036.3699951171875000,226.1224060058593800,536.8012084960938000,6.3830509185791020,37.0363616943359400,53,105,99,80,81,10745,2146965641,2147521664,2147296073,2147522148,2147085760,2146919149,2147725257,2147122459,623,-1,8,16113
1368426697,5808,1014.8499755859375000,215.2937011718750000,530.4409179687500000,6.5818901062011720,37.5272216796875000,52,111,98,79,81,10743,2146966025,2147516864,2147295716,2147520274,2147089216,2146921024,2147725065,2147119040,450,-1,8,56359
1368430297,5807,1012.7399902343750000,216.2171936035156200,530.4038696289062000,6.5830459594726560,37.4736099243164060,52,104,98,79,80,10734,2146961828,2147518253,2147298258,2147515712,2147090029,2146919753,2147723337,2147121408,153,-1,8,16721
1368433897,5804,1013.8300170898438000,213.8856964111328000,529.5689086914062000,6.6091270446777340,37.5929298400878900,52,106,99,79,81,10730,2146962578,2147514651,2147295012,2147516736,2147085092,2146918747,2147721709,2147119616,3464,-1,8,62222
1368437497,5807,1014.6500244140625000,216.4987030029297000,529.2526855468750000,6.6189990043640140,37.4374313354492200,52,104,98,80,81,10731,2146962651,2147512448,2147294006,2147515712,2147088429,2146918518,2147721819,2147121133,407,0,8,17676
1368441097,5805,1014.8800048828125000,217.5184020996093800,529.1035766601562000,6.6236572265625000,37.3766288757324200,52,110,99,81,81,10728,2146964992,2147516745,2147299693,2147518372,2147086098,2146916507,2147725092,2147121371,2933,-1,8,9762
1368444697,5807,1013.3699951171875000,212.0050964355468800,529.8593139648438000,6.6000580787658690,37.7070808410644500,53,103,100,79,80,10723,2146961883,2147520118,2147298066,2147517440,2147084809,2146924580,2147722038,2147118573,3523,-1,8,10870
1368448297,5809,1012.4600219726562000,210.8278045654297000,530.7869873046875000,6.5710749626159670,37.7924880981445300,52,106,98,80,81,10726,2146965293,2147520365,2147296000,2147517760,2147085211,2146918491,2147724562,2147121371,161,0,8,21724
1368451897,5807,1011.2800292968750000,208.6027984619140600,531.1885986328125000,6.5585289001464840,37.9300804138183600,52,112,100,81,80,10723,2146968356,2147517641,2147295259,2147517961,2147085275,2146918555,2147722761,2147118098,264,-1,8,19944
1368455497,5807,1009.0200195312500000,211.6878051757812500,533.3085937500000000,6.4922771453857420,37.7869911193847660,52,106,97,86,80,10677,2146967606,2147517860,2147295186,2147519643,2147083620,2146919588,2147721609,2147121947,164,-1,8,57369
1368459097,5806,1011.1799926757812000,223.4378051757812500,533.1671752929688000,6.4966950416564940,37.1181182861328100,52,107,99,80,81,10678,2146963501,2147518573,2147296950,2147513910,2147088548,2146920960,2147725238,2147123894,2597,-1,8,23900
1368462697,5804,1014.5900268554688000,222.1156005859375000,532.0302734375000000,6.5322299003601070,37.1708793640136700,52,106,99,80,80,10676,2146965229,2147519506,2147297462,2147515254,2147084306,2146919094,2147725558,2147117284,3479,0,8,30285
1368466297,5805,1013.5599975585938000,223.2017059326172000,532.3284301757812000,6.5229148864746090,37.1158981323242200,53,103,105,79,81,10671,2146964187,2147515940,2147296000,2147517028,2147087305,2146918811,2147718418,2147119122,2768,0,8,10430
1368469897,5804,1009.6799926757812000,221.4792938232422000,533.1105957031250000,6.4984650611877440,37.2254905700683600,52,128,99,79,81,10674,2146966436,2147520301,2147296932,2147518802,2147085321,2146922761,2147720859,2147121353,2827,-1,8,64753
1368473497,5804,1013.7299804687500000,223.9938964843750000,532.8878784179688000,6.5054278373718260,37.0824089050293000,52,104,98,80,80,10675,2146965705,2147517330,2147297133,2147516516,2147087058,2146924516,2147725321,2147123648,3397,-1,8,16972
1368477097,5808,1016.0700073242188000,223.3757019042968800,532.2418212890625000,6.5256199836730960,37.1050910949707000,52,102,107,79,80,10672,2146961389,2147521261,2147295597,2147518601,2147084525,2146925412,2147721828,2147119808,3591,-1,8,22684
1368480697,5806,1018.6599731445312000,223.7734069824218800,531.9464721679688000,6.5348491668701170,37.0776290893554700,52,107,99,81,80,10632,2146965467,2147515913,2147296329,2147517878,2147084992,2146923282,2147723090,2147119990,3311,0,8,26902
1368484297,5807,1019.5900268554688000,221.5558929443359400,530.9036254882812000,6.5674338340759280,37.1816902160644500,52,107,99,80,81,10632,2146964818,2147517101,2147298925,2147513069,2147085787,2146919908,2147722121,2147122715,74,-1,8,33168
1368487897,5804,1016.8400268554688000,221.2438049316406200,531.6755981445312000,6.5433139801025390,37.2131805419921900,51,103,98,79,79,10629,2146964955,2147518006,2147296109,2147512374,2147083821,2146922468,2147721536,2147120850,3100,-1,8,13845
1368491497,5807,1015.0700073242188000,217.8435058593750000,532.4406738281250000,6.5194029808044430,37.4177207946777340,52,105,101,79,80,10640,2146962733,2147515931,2147294637,2147513572,2147087332,2146923035,2147723885,2147119936,227,-1,8,58326
1368495097,5808,1011.9600219726562000,223.0133972167968800,534.2052001953125000,6.4642448425292970,37.1600608825683600,51,117,97,78,80,10643,2146962889,2147521426,2147297216,2147516324,2147083273,2146918994,2147725568,2147121316,694,0,8,18147
1368498697,5810,1012.9199829101562000,219.5601959228515600,534.2457275390625000,6.4629797935485840,37.3529510498046900,53,103,98,79,81,10648,2146966144,2147518491,2147298020,2147519222,2147084342,2146921673,2147722788,2147121636,44,-1,8,22315
1368502297,5805,1015.7399902343750000,219.7604980468750000,534.3715209960938000,6.4590449333190920,37.3446006774902340,53,105,97,79,80,10640,2146959844,2147517952,2147298642,2147515547,2147084205,2146920091,2147724745,2147121280,3286,-1,8,2396
1368505897,5805,1014.5800170898438000,226.1224975585937500,534.2393188476562000,6.4631810188293460,36.9904594421386700,52,103,99,80,79,10636,2146960548,2147519186,2147299483,2147515337,2147082614,2146923492,2147721590,2147124214,3152,-1,8,10167
1368509497,5807,1017.1099853515625000,221.1934051513672000,533.3295288085938000,6.4916210174560550,37.2451591491699200,54,119,100,81,81,10642,2146963702,2147520347,2147297270,2147515026,2147085888,2146920713,2147723547,2147119926,3569,-1,8,1805
1368513097,5808,1018.9899902343750000,220.1808013916015600,533.2760009765625000,6.4932961463928220,37.3008499145507800,52,105,98,79,81,10640,2146963538,2147518683,2147296640,2147517248,2147084809,2146920109,2147724086,2147122486,269,0,8,4505
1368516697,5808,1018.9000244140625000,222.2859039306640600,532.6898193359375000,6.5116200447082520,37.1730499267578100,52,105,98,79,81,10632,2146965147,2147517915,2147297417,2147515657,2147082139,2146922550,2147721380,2147122358,98,0,8,43930
1368520297,5805,1015.6900024414062000,220.9409942626953000,532.8408203125000000,6.5068969726562500,37.2506103515625000,52,104,98,79,81,10630,2146965156,2147516736,2147295789,2147518116,2147084379,2146922377,2147720557,2147118811,3456,-1,8,31804
1368523897,5807,1014.9099731445312000,223.4902038574218800,534.3126220703125000,6.4608860015869140,37.1361694335937500,53,105,97,79,81,10635,2146964379,2147522121,2147297938,2147517412,2147085129,2146920192,2147725312,2147122697,3000,-1,8,4664
1368527497,5807,1018.7399902343750000,226.6195068359375000,534.1505126953125000,6.4659562110900880,36.9614181518554700,52,116,97,79,80,10622,2146965833,2147520283,2147295789,2147515181,2147086930,2146920502,2147720301,2147121298,3199,0,8,60588
1368531097,5807,1015.5100097656250000,225.2350006103515600,534.3806762695312000,6.4587588310241700,37.0408782958984400,52,104,98,79,80,10634,2146963501,2147517897,2147295433,2147515190,2147085750,2146918464,2147723657,2147120374,3113,0,8,53945
1368534697,5806,1016.7700195312500000,224.0404052734375000,534.8601074218750000,6.4437680244445800,37.1150588989257800,53,105,98,80,80,10629,2146965293,2147518006,2147298587,2147516708,2147085284,2146922249,2147723922,2147120402,144,-1,8,54281
1368538297,5806,1019.5300292968750000,226.6728057861328000,534.1743774414062000,6.4652061462402340,36.9591789245605500,52,105,99,79,81,10629,2146963273,2147518829,2147296978,2147518043,2147082907,2146922486,2147722450,2147122459,3376,-1,8,12182
1368541897,5808,1015.2800292968750000,224.3630065917968800,534.4144287109375000,6.4577050209045410,37.0894584655761700,52,103,98,79,80,10629,2146962294,2147518500,2147295670,2147518262,2147082651,2146927131,2147724443,2147120996,56,0,8,51328
1368542156,5805,1145.0000000000000000,224.5805053710937500,534.4431152343750000,6.4568061828613280,37.0782814025878900,51,106,100,79,80,10721,2146962313,2147520237,2147295652,2147519360,2147082614,2146917613,2147723574,2147123547,3291,0,8,61735
